Flag for Canada Weather past 2 weeks in Belleville, Ontario, Canada

Now
41 °F

Overcast.


Feels Like: 31 °F
Forecast: 36 / 50 °F
Wind: 25 mph from Southwest

Location: Trenton

Current Time: Dec 25, 2014 at 6:33:17 AM

Latest Report: Dec 25, 2014 at 6:00 AM


Visibility: 15 mi

Pressure: 29.44 "Hg

Humidity: 81%

Dew point: 36 °F

Location of BellevilleLocation

Historic Weather in Belleville — Graph

°F

Belleville temperature yesterday

Maximum temperature yesterday: 52 °F (at 11:00 PM)
Minimum temperature yesterday: 45 °F (at 12:00 AM)
Average temperature yesterday: 47 °F

Past Weeks' High & Low Weather Summary

 TemperatureHumidityPressure
High52 °F (Dec 24, 11:00 PM)100% (Dec 11, 3:00 AM)30.36 "Hg (Dec 11, 3:00 AM)
Low12 °F (Dec 20, 7:00 AM)59% (Dec 19, 1:00 PM)29.20 "Hg (Dec 24, 11:00 PM)
Average31 °F87%30.01 "Hg
* Reported Dec 10 5:00 AM — Dec 25 5:00 AM, Belleville, Weather by CustomWeather, © 2014

Note: Actual official high and low records may vary slightly from our data, if they occured in-between our weather recording intervals... More about our weather records

Advertising

Belleville weather history for previous 24 hours

 ConditionsComfort  
Time TempWeatherWind HumidityBarometerVisibility
5:00 AM
Dec 25
41 °FOvercast.33 mph87%29.40 "Hg15 mi
4:00 AM41 °FOvercast.32 mph81%29.37 "Hg15 mi
3:00 AM41 °FOvercast.38 mph81%29.31 "Hg15 mi
2:00 AM43 °FPartly cloudy.30 mph81%29.27 "Hg15 mi
1:00 AM46 °FRain showers. Fog.26 mph87%29.26 "Hg4 mi
12:47 AMN/ARain showers.20 mphN/AN/A5 mi
12:00 AM52 °FOvercast.22 mph88%29.25 "Hg15 mi
11:47 PM
Dec 24
N/AOvercast.25 mphN/AN/A15 mi
11:00 PM52 °FOvercast.13 mph94%29.20 "Hg15 mi
10:00 PM50 °FMostly cloudy.No wind100%29.27 "Hg15 mi
9:00 PM48 °FPassing clouds.3 mph100%29.31 "Hg15 mi
8:00 PM48 °FMostly cloudy.3 mph100%29.36 "Hg15 mi
7:00 PM50 °FMostly cloudy.7 mph94%29.40 "Hg15 mi
6:00 PM48 °FMostly cloudy.No wind100%29.42 "Hg15 mi
5:00 PM48 °FMostly cloudy.2 mph100%29.46 "Hg15 mi
4:00 PM48 °FLow clouds.No wind100%29.50 "Hg12 mi
3:00 PM48 °FMore clouds than sun.5 mph100%29.52 "Hg12 mi
2:00 PM48 °FOvercast.8 mph100%29.56 "Hg12 mi
1:00 PM46 °FDrizzle. Fog.9 mph100%29.60 "Hg5 mi
12:00 PM46 °FDrizzle. Low clouds.9 mph100%29.63 "Hg10 mi
11:00 AM48 °FLow clouds.3 mph94%29.69 "Hg12 mi
10:00 AM48 °FMostly cloudy.7 mph94%29.69 "Hg12 mi
9:00 AM46 °FLow clouds.8 mph100%29.71 "Hg12 mi
8:00 AM46 °FDrizzle. Low clouds.7 mph100%29.72 "Hg10 mi
7:00 AM45 °FSprinkles. Low clouds.6 mph100%29.77 "Hg9 mi
6:00 AM45 °FSprinkles. Mostly cloudy.7 mph100%29.79 "Hg9 mi
Weather by CustomWeather, © 2014

See weather overviewHow to use our weather pages